Location: Newark
(48.1500°N, 2.9667°W)
Time: 17:02:25
(UTC+00:00)

STARLINK 1009 - Pass Details

Date: 09 December 2019
Orbit: 348 x 351 km, 53.0° (Epoch: 22 January)

Event Time Altitude Azimuth Distance (km) Brightness Sun altitude
Exits shadow 05:50:48 54° 194° (SSW) 452 3.1 -18.9°
Drops below altitude 10° 05:53:34 10° 133° (SE) 1,352 6.5 -18.4°
Sets 05:55:36 0° 129° (SE) 2,190 7.9 -18.1°
